Weather History for Atlanta Dekalb, GA

Change the Weather History Date:

Tuesday, April 24, 2012

  Actual Average Record
Temperature  
Mean Temperature 52 °F 64 °F  
Max Temperature 66 °F 76 °F 86 °F (1999)
Min Temperature 39 °F 52 °F 36 °F (2005)
Degree Days  
Heating Degree Days 12 3  
Month to date heating degree days 130  
Since 1 July heating degree days 2899  
Cooling Degree Days 0 2  
Month to date cooling degree days 29  
Year to date cooling degree days 36  
Growing Degree Days 2 (Base 50)    
Moisture  
Dew Point 33 °F    
Average Humidity 47    
Maximum Humidity 68    
Minimum Humidity 30    
Precipitation  
Precipitation 0.00 in 0.14 in 0.91 in (2001)
Month to date precipitation 2.84  
Year to date precipitation 17.63  
Sea Level Pressure  
Sea Level Pressure 29.91 in    
Wind  
Wind Speed 8 mph (West)    
Max Wind Speed 20 mph    
Max Gust Speed 29 mph    
Visibility 10 miles    
Events      
T = Trace of Precipitation, MM = Missing Value Source: NWS Daily Summary

Daily Weather History Graph

Daily Weather History Graph

Search for Another Location

Airport:

Trip Planner

Search our weather history database for the weather conditions in past years. The results will help you decide how hot, cold, wet, or windy it might be!

Date:

Astronomy

Apr. 24, 2012 Rise Set
Actual Time 6:55 AM EDT 8:15 PM EDT
Civil Twilight 6:29 AM EDT 8:42 PM EDT
Nautical Twilight 5:57 AM EDT 9:13 PM EDT
Astronomical Twilight 5:25 AM EDT 9:46 PM EDT
Moon 8:57 AM EDT (4/24) 11:28 PM EDT (4/24)
Length of Visible Light 14h 13m
Length of Day
13h 20m
Waxing Crescent, 10% of the Moon is Illuminated
Apr 24
Waxing Crescent
Apr 29
First Quarter
May 5
Full
May 12
Last Quarter
May 20
New

Hourly Weather History & Observations

Time (EDT) Temp. Windchill Dew Point Humidity Pressure Visibility Wind Dir Wind Speed Gust Speed Precip Events Conditions
12:53 AM 46.0 °F 43.9 °F 25.0 °F 44% 29.90 in 10.0 mi West 4.6 mph - N/A   Clear
1:53 AM 44.1 °F 40.8 °F 27.0 °F 51% 29.89 in 10.0 mi West 5.8 mph - N/A   Clear
2:53 AM 39.9 °F 35.8 °F 28.9 °F 65% 29.88 in 10.0 mi SW 5.8 mph - N/A   Clear
3:53 AM 44.1 °F 40.8 °F 28.9 °F 55% 29.88 in 10.0 mi West 5.8 mph - N/A   Clear
4:53 AM 42.8 °F 40.1 °F 30.2 °F 61% 29.87 in 10.0 mi WSW 4.6 mph - N/A   Clear
5:53 AM 39.9 °F 35.8 °F 30.0 °F 68% 29.90 in 10.0 mi WSW 5.8 mph - N/A   Clear
6:53 AM 41.0 °F 38.0 °F 30.9 °F 67% 29.92 in 10.0 mi West 4.6 mph - N/A   Clear
7:53 AM 44.1 °F 40.1 °F 30.9 °F 60% 29.93 in 10.0 mi West 6.9 mph - N/A   Clear
8:53 AM 48.0 °F - 32.0 °F 54% 29.94 in 10.0 mi West 9.2 mph - N/A   Clear
9:53 AM 53.1 °F - 34.0 °F 48% 29.94 in 10.0 mi West 6.9 mph 16.1 mph N/A   Clear
10:22 AM 55.4 °F - 35.6 °F 47% 29.94 in 10.0 mi WNW 10.4 mph - N/A   Partly Cloudy
10:53 AM 57.9 °F - 34.0 °F 41% 29.94 in 10.0 mi WNW 15.0 mph 23.0 mph N/A   Clear
11:53 AM 61.0 °F - 32.0 °F 34% 29.94 in 10.0 mi NW 19.6 mph 25.3 mph N/A   Scattered Clouds
12:53 PM 62.1 °F - 30.9 °F 31% 29.93 in 10.0 mi WNW 15.0 mph 28.8 mph N/A   Partly Cloudy
1:53 PM 64.0 °F - 32.0 °F 30% 29.91 in 10.0 mi NW 9.2 mph 28.8 mph N/A   Mostly Cloudy
2:53 PM 63.0 °F - 33.1 °F 33% 29.92 in 10.0 mi WNW 19.6 mph 28.8 mph N/A   Mostly Cloudy
3:53 PM 66.0 °F - 34.0 °F 30% 29.89 in 10.0 mi WNW 11.5 mph 19.6 mph N/A   Scattered Clouds
4:53 PM 64.0 °F - 34.0 °F 33% 29.89 in 10.0 mi WNW 12.7 mph 18.4 mph N/A   Mostly Cloudy
5:53 PM 64.9 °F - 35.1 °F 33% 29.89 in 10.0 mi West 13.8 mph 25.3 mph N/A   Scattered Clouds
6:53 PM 64.9 °F - 36.0 °F 34% 29.90 in 10.0 mi WNW 9.2 mph - N/A   Partly Cloudy
7:53 PM 63.0 °F - 36.0 °F 37% 29.88 in 10.0 mi West 6.9 mph - N/A   Clear
8:53 PM 60.1 °F - 37.0 °F 42% 29.90 in 10.0 mi WSW 4.6 mph - N/A   Clear
9:53 PM 57.0 °F - 39.0 °F 51% 29.91 in 10.0 mi WSW 3.5 mph - N/A   Clear
10:53 PM 55.9 °F - 39.0 °F 53% 29.91 in 10.0 mi WSW 3.5 mph - N/A   Clear
11:53 PM 51.1 °F - 41.0 °F 68% 29.91 in 10.0 mi Calm Calm - N/A   Clear